EW4858 Weather Reports


Display with metric or nautical units.
time (UTC)temp
F
wind
direction
speed
MPH
gust
MPH
rain 1hr
in
rain 24hr
in
rain mn
in
humidity
%
barometer
mb
20260505221535 66 24 9.0 13.0 0.00 0.24 0.24 53 1011.0
20260505220051 66 69 8.0 12.0 0.00 0.24 0.24 56 1011.0
20260505214534 66 36 10.0 15.0 0.00 0.24 0.24 54 1011.1
20260505213038 66 61 9.0 14.0 0.00 0.24 0.24 55 1011.1
20260505211538 66 37 8.0 17.0 0.00 0.24 0.24 55 1011.4
20260505210033 66 44 9.0 16.0 0.00 0.24 0.24 55 1011.4
20260505204526 64 44 7.0 16.0 0.00 0.24 0.24 58 1011.5
20260505203025 63 92 5.0 14.0 0.00 0.24 0.24 60 1011.7
20260505201525 63 82 10.0 17.0 0.00 0.24 0.24 64 1011.8
20260505200024 64 101 6.0 13.0 0.00 0.24 0.24 61 1011.7
20260505194523 63 70 5.0 11.0 0.00 0.24 0.24 61 1011.9
20260505193031 62 46 7.0 10.0 0.00 0.24 0.24 63 1012.0
20260505191522 62 87 4.0 14.0 0.00 0.24 0.24 70 1012.0
20260505190016 62 73 3.0 11.0 0.01 0.24 0.24 69 1012.1
20260505184514 60 90 6.0 13.0 0.01 0.24 0.24 76 1012.0
20260505183012 59 38 4.0 11.0 0.01 0.24 0.24 84 1012.1
20260505181507 58 161 1.0 4.0 0.01 0.24 0.24 89 1012.1
20260505180006 57 245 0.0 0.0 0.01 0.23 0.23 90 1012.1
20260505174505 56 262 0.0 0.0 0.03 0.23 0.23 91 1012.0
20260505173005 56 262 0.0 0.0 0.04 0.23 0.23 91 1011.8
20260505171503 55 262 0.0 0.0 0.05 0.23 0.23 90 1011.7
20260505170001 56 262 0.0 0.0 0.04 0.22 0.22 90 1011.6
20260505164604 56 262 0.0 4.0 0.02 0.20 0.20 90 1011.5
20260505163100 56 281 0.0 3.0 0.01 0.19 0.19 90 1011.3
20260505161601 56 271 0.0 4.0 0.00 0.18 0.18 90 1011.2
20260505153109 54 125 0.0 0.0 0.06 0.18 0.18 92 1011.1
20260505151555 54 102 0.0 0.0 0.06 0.18 0.18 92 1011.1
20260505124549 56 43 0.0 3.0 0.01 0.11 0.11 92 1009.6
20260505123052 56 93 0.0 5.0 0.01 0.11 0.11 92 1009.7
20260505121543 56 63 3.0 5.0 0.00 0.10 0.10 92 1009.6
20260505120049 56 40 0.0 4.0 0.00 0.10 0.10 92 1009.5
20260505114542 56 44 3.0 5.0 0.00 0.10 0.10 92 1009.4
20260505113049 56 48 0.0 0.0 0.00 0.10 0.10 93 1009.5
20260505111540 56 63 1.0 5.0 0.00 0.10 0.10 93 1009.5
20260505101537 55 317 0.0 3.0 0.02 0.10 0.10 92 1009.6
20260505100036 55 316 0.0 4.0 0.02 0.09 0.09 92 1009.7
20260505094534 55 280 0.0 3.0 0.03 0.09 0.09 92 1009.8
20260505093033 55 280 0.0 4.0 0.04 0.09 0.09 91 1009.9
20260505091531 55 280 0.0 4.0 0.07 0.08 0.08 91 1010.1
20260505090029 55 305 2.0 5.0 0.07 0.07 0.07 91 1010.2
20260505084542 55 306 1.0 5.0 0.06 0.06 0.06 90 1010.2
20260505083025 56 331 2.0 5.0 0.05 0.05 0.05 89 1010.4
20260505081529 56 316 0.0 4.0 0.01 0.01 0.01 88 1010.6
20260505080020 56 339 3.0 6.0 0.00 0.00 0.00 86 1010.6
20260505074519 57 15 0.0 4.0 0.00 0.00 0.00 86 1010.6
20260505073016 58 25 0.0 5.0 0.00 0.00 0.00 84 1010.7
20260505071513 59 321 0.0 6.0 0.00 0.00 0.00 79 1010.8
20260505070012 58 309 1.0 4.0 0.00 0.00 0.00 77 1010.8
20260505064510 58 300 0.0 6.0 0.00 0.00 0.00 77 1010.9
20260505063009 59 311 0.0 5.0 0.00 0.00 0.00 77 1010.9
20260505061512 59 319 0.0 4.0 0.00 0.00 0.00 77 1011.0
20260505060009 59 341 1.0 5.0 0.00 0.00 0.00 77 1011.1
20260505054508 59 338 0.0 5.0 0.00 0.00 0.00 76 1011.2
20260505053007 59 12 2.0 5.0 0.00 0.00 0.00 76 1011.4
20260505051510 60 333 3.0 5.0 0.00 0.00 0.00 76 1011.5
20260505041507 60 61 1.0 6.0 0.00 0.00 0.00 72 1011.6
20260505040005 60 74 3.0 7.0 0.00 0.00 0.00 72 1011.5
20260505034504 60 52 1.0 4.0 0.00 0.00 0.00 73 1011.4
20260505033004 60 77 1.0 9.0 0.00 0.00 0.00 72 1011.4
20260505031503 61 56 4.0 8.0 0.00 0.00 0.00 72 1011.2
20260505030003 61 95 3.0 9.0 0.00 0.00 0.00 71 1011.0
20260505024502 61 58 6.0 11.0 0.00 0.00 0.00 70 1010.9
20260505023002 62 46 3.0 9.0 0.00 0.00 0.00 69 1010.9
20260505021504 62 84 6.0 10.0 0.00 0.00 0.00 67 1010.8
20260505014559 63 46 4.0 12.0 0.00 0.00 0.00 64 1010.7
20260505013101 64 121 3.0 9.0 0.00 0.00 0.00 63 1010.8
20260505011611 65 41 6.0 12.0 0.00 0.00 0.00 61 1010.9
20260505010057 65 68 6.0 11.0 0.00 0.00 0.00 58 1010.9
20260505004607 66 38 6.0 14.0 0.00 0.00 0.00 59 1011.0
20260505003057 66 23 6.0 12.0 0.00 0.00 0.00 58 1010.9
20260505001617 66 44 5.0 14.0 0.00 0.00 0.00 58 1010.9
20260505000108 66 57 6.0 14.0 0.00 0.00 0.00 58 1011.0
20260504234557 66 30 9.0 15.0 0.00 0.00 0.00 59 1011.1
20260504233109 66 88 8.0 14.0 0.00 0.00 0.00 59 1011.0
20260504231555 66 49 7.0 13.0 0.00 0.00 0.00 59 1010.9
20260504230054 67 42 8.0 16.0 0.00 0.00 0.00 57 1011.0
20260504224553 66 63 10.0 15.0 0.00 0.00 0.00 57 1010.9
20260504223053 67 40 7.0 14.0 0.00 0.00 0.00 54 1010.9